CW8826 Weather Reports


time (UTC)temp
C
wind
direction
speed
KPH
gust
KPH
rain 1hr
cm
rain 24hr
cm
rain mn
cm
humidity
%
barometer
mb
20260508191537 20 158 4.8 9.7 0.00 0.00 0.00 25 1017.4
20260508190517 21 315 6.4 14.5 0.00 0.00 0.00 25 1017.8
20260508185516 21 270 4.8 11.3 0.00 0.00 0.00 27 1017.9
20260508184537 20 248 8.0 19.3 0.00 0.00 0.00 25 1018.0
20260508183516 20 248 6.4 17.7 0.00 0.00 0.00 26 1018.0
20260508182516 20 315 6.4 12.9 0.00 0.00 0.00 27 1018.2
20260508181517 20 248 4.8 9.7 0.00 0.00 0.00 26 1018.2
20260508180517 20 248 4.8 12.9 0.00 0.00 0.00 30 1018.1
20260508175517 20 248 6.4 14.5 0.00 0.00 0.00 29 1018.5
20260508174517 19 225 3.2 11.3 0.00 0.00 0.00 32 1018.3
20260508173516 20 225 3.2 8.0 0.00 0.00 0.00 30 1018.6
20260508172517 20 338 4.8 9.7 0.00 0.00 0.00 31 1018.3
20260508171517 19 225 6.4 12.9 0.00 0.00 0.00 28 1018.2
20260508170516 19 270 3.2 6.4 0.00 0.00 0.00 29 1018.1
20260508165517 18 270 1.6 4.8 0.00 0.00 0.00 30 1017.8
20260508164517 19 315 3.2 6.4 0.00 0.00 0.00 31 1017.9
20260508163536 18 315 3.2 8.0 0.00 0.00 0.00 33 1018.0
20260508162536 18 315 3.2 8.0 0.00 0.00 0.00 32 1018.2
20260508161517 18 315 4.8 9.7 0.00 0.00 0.00 32 1018.3
20260508160516 18 113 3.2 6.4 0.00 0.00 0.00 32 1018.2
20260508155537 18 113 1.6 3.2 0.00 0.00 0.00 31 1018.2
20260508154516 18 113 1.6 6.4 0.00 0.00 0.00 33 1018.3
20260508153516 17 113 1.6 3.2 0.00 0.00 0.00 32 1017.9
20260508152516 17 0.0 1.6 0.00 0.00 0.00 34 1018.4
20260508151516 17 0.0 0.0 0.00 0.00 0.00 35 1018.0
20260508150516 16 0.0 0.0 0.00 0.00 0.00 37 1018.0
20260508145516 16 0.0 0.0 0.00 0.00 0.00 37 1017.8
20260508144516 15 113 1.6 1.6 0.00 0.00 0.00 39 1017.7
20260508143517 14 113 1.6 4.8 0.00 0.00 0.00 40 1017.3
20260508142516 14 113 3.2 4.8 0.00 0.00 0.00 41 1018.0
20260508141516 14 113 6.4 14.5 0.00 0.00 0.00 38 1017.8
20260508140516 13 135 8.0 19.3 0.00 0.00 0.00 42 1017.8
20260508135516 13 113 8.0 14.5 0.00 0.00 0.00 40 1018.2
20260508134516 15 113 14.5 22.5 0.00 0.00 0.00 35 1018.2
20260508133516 15 113 14.5 24.1 0.00 0.00 0.00 37 1018.1
20260508132537 14 113 17.7 29.0 0.00 0.00 0.00 37 1017.8
20260508131516 14 113 14.5 25.7 0.00 0.00 0.00 38 1017.7
20260508130517 14 90 16.1 25.7 0.00 0.00 0.00 37 1017.5
20260508125520 13 113 17.7 27.4 0.00 0.00 0.00 38 1017.5
20260508124516 15 90 17.7 32.2 0.00 0.00 0.00 36 1017.7
20260508123516 15 113 14.5 30.6 0.00 0.00 0.00 36 1017.6
20260508122556 14 113 11.3 22.5 0.00 0.00 0.00 37 1016.9
20260508121516 14 113 17.7 27.4 0.00 0.00 0.00 38 1016.9
20260508120516 14 113 11.3 22.5 0.00 0.00 0.00 38 1016.7
20260508115516 15 113 9.7 25.7 0.00 0.00 0.00 38 1017.2
20260508114516 15 113 11.3 25.7 0.00 0.00 0.00 37 1017.0
20260508113557 15 113 14.5 22.5 0.00 0.00 0.00 38 1017.0
20260508112536 15 113 11.3 17.7 0.00 0.00 0.00 38 1017.1
20260508111516 15 113 11.3 20.9 0.00 0.00 0.00 38 1017.1
20260508110516 14 113 6.4 14.5 0.00 0.00 0.00 39 1016.7
20260508105517 14 90 4.8 9.7 0.00 0.00 0.00 40 1016.8
20260508104516 14 113 4.8 8.0 0.00 0.00 0.00 40 1016.6
20260508103557 14 113 8.0 14.5 0.00 0.00 0.00 39 1016.5
20260508102516 14 113 9.7 16.1 0.00 0.00 0.00 40 1016.5
20260508101516 14 90 8.0 25.7 0.00 0.00 0.00 41 1016.6
20260508100516 14 113 12.9 20.9 0.00 0.00 0.00 40 1016.4
20260508095556 15 113 11.3 24.1 0.00 0.00 0.00 39 1016.8
20260508094516 15 113 14.5 29.0 0.00 0.00 0.00 38 1016.6
20260508093516 15 113 9.7 22.5 0.00 0.00 0.00 37 1016.7
20260508092536 15 135 8.0 16.1 0.00 0.00 0.00 37 1016.5
20260508091516 15 113 11.3 25.7 0.00 0.00 0.00 38 1016.6
20260508090516 15 113 11.3 20.9 0.00 0.00 0.00 38 1016.2
20260508085516 15 113 11.3 24.1 0.00 0.00 0.00 37 1016.6
20260508084516 15 113 12.9 27.4 0.00 0.00 0.00 37 1016.7
20260508083537 15 113 14.5 27.4 0.00 0.00 0.00 38 1016.7
20260508082516 15 113 14.5 27.4 0.00 0.00 0.00 37 1016.4
20260508081516 15 113 8.0 16.1 0.00 0.00 0.00 36 1016.4
20260508080516 16 113 9.7 19.3 0.00 0.00 0.00 36 1016.8
20260508075516 16 113 11.3 25.7 0.00 0.00 0.00 36 1016.5
20260508074516 16 113 11.3 20.9 0.00 0.00 0.00 35 1016.7
20260508073518 16 113 14.5 25.7 0.00 0.00 0.00 35 1016.8
20260508072516 16 113 20.9 32.2 0.00 0.00 0.00 36 1016.7
20260508071536 16 113 17.7 30.6 0.00 0.00 0.00 36 1016.7
20260508070516 15 113 16.1 24.1 0.00 0.00 0.00 38 1016.4
20260508065516 16 113 17.7 27.4 0.00 0.00 0.00 36 1016.1
20260508064516 16 113 11.3 20.9 0.00 0.00 0.00 35 1016.1
20260508063516 16 113 12.9 27.4 0.00 0.00 0.00 36 1016.1
20260508062516 16 113 12.9 27.4 0.00 0.00 0.00 36 1016.1
20260508061516 16 135 11.3 17.7 0.00 0.00 0.00 36 1016.2
20260508060516 16 113 19.3 24.1 0.00 0.00 0.00 35 1016.1
20260508060016 16 113 11.3 20.9 0.00 0.00 0.00 35 1015.9
20260508055037 16 113 11.3 17.7 0.00 0.00 0.00 34 1015.8
20260508054017 16 113 11.3 19.3 0.00 0.00 0.00 34 1015.8
20260508053037 17 113 14.5 24.1 0.00 0.00 0.00 33 1015.5
20260508052017 16 113 12.9 22.5 0.00 0.00 0.00 34 1015.5
20260508051037 16 113 12.9 25.7 0.00 0.00 0.00 35 1015.1
20260508050017 16 113 12.9 24.1 0.00 0.00 0.00 35 1014.8
20260508045017 16 113 14.5 24.1 0.00 0.00 0.00 37 1014.8
20260508044017 16 113 16.1 22.5 0.00 0.00 0.00 34 1015.2
20260508043017 16 113 14.5 25.7 0.00 0.00 0.00 36 1014.7
20260508042017 16 113 19.3 29.0 0.00 0.00 0.00 34 1014.7
20260508041017 16 113 20.9 27.4 0.00 0.00 0.00 36 1014.8
20260508040017 16 113 19.3 30.6 0.00 0.00 0.00 36 1014.7
20260508035017 17 113 12.9 22.5 0.00 0.00 0.00 33 1014.9
20260508034019 17 113 14.5 22.5 0.00 0.00 0.00 34 1014.8
20260508033017 17 113 14.5 24.1 0.00 0.00 0.00 35 1014.6
20260508032018 16 113 17.7 25.7 0.00 0.00 0.00 37 1014.5
20260508031017 17 113 14.5 25.7 0.00 0.00 0.00 34 1014.4
20260508030040 17 113 11.3 17.7 0.00 0.00 0.00 34 1013.9
20260508025016 18 113 8.0 16.1 0.00 0.00 0.00 33 1013.9
20260508024037 18 113 4.8 6.4 0.00 0.00 0.00 31 1014.3
20260508023017 20 0.0 1.6 0.00 0.00 0.00 29 1014.2
20260508022017 21 0.0 0.0 0.00 0.00 0.00 27 1014.5
20260508021037 21 0 1.6 3.2 0.00 0.00 0.00 26 1014.4
20260508015037 22 315 3.2 8.0 0.00 0.00 0.00 24 1014.7
20260508014017 23 0.0 1.6 0.00 0.00 0.00 23 1014.7
20260508013016 23 0.0 0.0 0.00 0.00 0.00 23 1014.8
20260508012017 23 158 1.6 6.4 0.00 0.00 0.00 23 1015.2
20260508011017 22 225 4.8 11.3 0.00 0.00 0.00 22 1014.8
20260508010017 22 158 4.8 9.7 0.00 0.00 0.00 23 1014.9
20260508005016 22 113 1.6 4.8 0.00 0.00 0.00 22 1015.0
20260508004016 22 225 3.2 8.0 0.00 0.00 0.00 23 1015.1
20260508003016 22 0.0 3.2 0.00 0.00 0.00 23 1015.6
20260508002057 21 0.0 1.6 0.00 0.00 0.00 24 1015.4
20260508001016 21 158 1.6 4.8 0.00 0.00 0.00 25 1015.5
20260508000017 21 315 1.6 3.2 0.00 0.00 0.00 25 1015.3
20260507235037 21 315 1.6 4.8 0.00 0.00 0.00 24 1015.4
20260507234018 21 270 1.6 6.4 0.00 0.00 0.00 24 1015.4
20260507233016 22 0.0 4.8 0.00 0.00 0.00 23 1015.6
20260507232017 22 315 4.8 11.3 0.00 0.00 0.00 24 1015.8
20260507231057 22 248 4.8 9.7 0.00 0.00 0.00 26 1015.9
20260507230017 21 23 1.6 6.4 0.00 0.00 0.00 25 1015.8
20260507225017 21 315 3.2 12.9 0.00 0.00 0.00 25 1016.1
20260507224016 22 0 3.2 11.3 0.00 0.00 0.00 25 1016.2
20260507223017 21 315 6.4 11.3 0.00 0.00 0.00 26 1016.8
20260507222016 22 315 6.4 16.1 0.00 0.00 0.00 27 1017.3
20260507221036 21 315 6.4 16.1 0.00 0.00 0.00 27 1017.0
20260507220017 21 315 6.4 16.1 0.00 0.00 0.00 26 1017.6
20260507215016 21 315 4.8 19.3 0.00 0.00 0.00 26 1017.7
20260507214017 21 248 4.8 11.3 0.00 0.00 0.00 25 1017.8
20260507213016 21 248 8.0 22.5 0.00 0.00 0.00 25 1017.5
20260507212037 21 270 6.4 19.3 0.00 0.00 0.00 26 1017.8
20260507211018 21 293 3.2 6.4 0.00 0.00 0.00 24 1018.0
20260507210036 21 338 6.4 16.1 0.00 0.00 0.00 24 1018.2
20260507205016 21 315 6.4 11.3 0.00 0.00 0.00 23 1017.9
20260507204016 21 248 3.2 6.4 0.00 0.00 0.00 23 1018.4
20260507203017 21 0.0 3.2 0.00 0.00 0.00 23 1018.5
20260507202017 20 315 3.2 6.4 0.00 0.00 0.00 23 1018.4
20260507201016 20 0 4.8 8.0 0.00 0.00 0.00 24 1018.5
20260507200017 20 315 1.6 4.8 0.00 0.00 0.00 23 1018.6
20260507195016 20 315 6.4 11.3 0.00 0.00 0.00 24 1018.8
20260507194017 20 248 4.8 12.9 0.00 0.00 0.00 25 1018.8
20260507193036 20 315 1.6 8.0 0.00 0.00 0.00 23 1018.8